EW5462 Weather Reports


Display with metric or nautical units.
time (UTC)temp
F
wind
direction
speed
MPH
gust
MPH
rain 1hr
in
rain 24hr
in
rain mn
in
humidity
%
barometer
mb
20260831203716 108 141 9.0 13.0 0.00 0.00 0.00 27 1007.6
20260831202717 108 172 8.0 12.0 0.00 0.00 0.00 27 1007.7
20260831201717 107 192 7.0 12.0 0.00 0.00 0.00 28 1007.7
20260831200717 107 143 4.0 14.0 0.00 0.00 0.00 29 1007.9
20260831195717 107 153 3.0 5.0 0.00 0.00 0.00 29 1008.0
20260831194716 107 182 7.0 10.0 0.00 0.00 0.00 29 1008.2
20260831193717 106 178 8.0 11.0 0.00 0.00 0.00 30 1008.3
20260831192716 107 166 8.0 11.0 0.00 0.00 0.00 30 1008.4
20260831191717 105 188 1.0 8.0 0.00 0.00 0.00 30 1008.6
20260831190716 105 215 4.0 7.0 0.00 0.00 0.00 34 1008.8
20260831185717 101 349 0.0 1.0 0.00 0.00 0.00 40 1008.9
20260831184717 102 198 1.0 4.0 0.00 0.00 0.00 39 1009.1
20260831183717 102 162 2.0 8.0 0.00 0.00 0.00 39 1009.1
20260831182716 102 0.0 0.0 0.00 0.00 0.00 36 1009.2
20260831181617 101 0.0 0.0 0.00 0.00 0.00 34 1009.2
20260831181017 103 178 0.0 1.0 0.00 0.00 0.00 32 1009.2
20260831180017 102 337 0.0 1.0 0.00 0.00 0.00 29 1009.2
20260831175016 102 56 2.0 4.0 0.00 0.00 0.00 28 1009.3
20260831174017 102 14 0.0 1.0 0.00 0.00 0.00 26 1009.4
20260831173017 101 0.0 0.0 0.00 0.00 0.00 26 1009.3
20260831172016 101 0.0 0.0 0.00 0.00 0.00 25 1009.4
20260831171017 101 237 2.0 6.0 0.00 0.00 0.00 24 1009.4
20260831170017 100 0.0 0.0 0.00 0.00 0.00 25 1009.4
20260831165016 99 0.0 0.0 0.00 0.00 0.00 24 1009.3
20260831164017 98 0.0 0.0 0.00 0.00 0.00 24 1009.4
20260831163021 98 0.0 0.0 0.00 0.00 0.00 21 1009.3
20260831162018 97 0.0 0.0 0.00 0.00 0.00 20 1009.2
20260831161019 97 298 0.0 2.0 0.00 0.00 0.00 18 1009.1
20260831160025 96 247 1.0 2.0 0.00 0.00 0.00 19 1009.2
20260831155018 96 0.0 0.0 0.00 0.00 0.00 19 1009.2
20260831154019 96 239 0.0 3.0 0.00 0.00 0.00 20 1009.2
20260831153020 95 272 0.0 0.0 0.00 0.00 0.00 19 1009.3
20260831152017 94 0.0 0.0 0.00 0.00 0.00 20 1009.4
20260831151017 94 0.0 0.0 0.00 0.00 0.00 21 1009.4
20260831150018 93 0.0 0.0 0.00 0.00 0.00 24 1009.3
20260831145017 92 228 2.0 5.0 0.00 0.00 0.00 38 1009.3
20260831144017 91 216 1.0 5.0 0.00 0.00 0.00 44 1009.2
20260831143217 89 0.0 0.0 0.00 0.00 0.00 56 1009.2
20260831142220 89 198 0.0 0.0 0.00 0.00 0.00 58 1009.1
20260831141217 88 0.0 0.0 0.00 0.00 0.00 61 1009.1
20260831140217 87 0.0 0.0 0.00 0.00 0.00 67 1009.0
20260831135218 87 0.0 0.0 0.00 0.00 0.00 69 1008.8
20260831134217 86 0.0 0.0 0.00 0.00 0.00 70 1008.7
20260831133217 87 0.0 0.0 0.00 0.00 0.00 70 1008.5
20260831132218 86 0.0 0.0 0.00 0.00 0.00 72 1008.4
20260831131217 87 173 2.0 2.0 0.00 0.00 0.00 71 1008.2
20260831130216 87 147 0.0 0.0 0.00 0.00 0.00 70 1008.0
20260831125217 87 184 0.0 2.0 0.00 0.00 0.00 71 1007.9
20260831124216 87 155 1.0 5.0 0.00 0.00 0.00 70 1007.8
20260831123217 87 172 5.0 7.0 0.00 0.00 0.00 69 1007.7
20260831122917 88 155 0.0 2.0 0.00 0.00 0.00 69 1007.6
20260831121916 88 189 3.0 6.0 0.00 0.00 0.00 68 1007.6
20260831120917 88 0.0 0.0 0.00 0.00 0.00 68 1007.5
20260831115916 88 149 6.0 8.0 0.00 0.00 0.00 66 1007.4
20260831114917 88 195 2.0 4.0 0.00 0.00 0.00 69 1007.4
20260831113917 87 175 5.0 6.0 0.00 0.00 0.00 70 1007.4
20260831112916 87 0.0 0.0 0.00 0.00 0.00 70 1007.5
20260831111917 88 0.0 0.0 0.00 0.00 0.00 69 1007.5
20260831110917 88 0.0 0.0 0.00 0.00 0.00 69 1007.5
20260831105916 88 0.0 0.0 0.00 0.00 0.00 69 1007.4
20260831104917 88 195 0.0 0.0 0.00 0.00 0.00 69 1007.4
20260831103916 88 197 1.0 5.0 0.00 0.00 0.00 68 1007.3
20260831102917 88 0.0 0.0 0.00 0.00 0.00 67 1007.2
20260831101917 89 0.0 0.0 0.00 0.00 0.00 66 1007.1
20260831100917 88 198 0.0 1.0 0.00 0.00 0.00 65 1007.1
20260831095916 89 0.0 0.0 0.00 0.00 0.00 64 1007.0
20260831094917 88 0.0 0.0 0.00 0.00 0.00 63 1006.9
20260831093917 88 0.0 0.0 0.00 0.00 0.00 63 1006.9
20260831092916 88 0.0 0.0 0.00 0.00 0.00 62 1006.9
20260831091916 89 0.0 0.0 0.00 0.00 0.00 62 1006.9
20260831090917 89 0.0 0.0 0.00 0.00 0.00 62 1007.0
20260831085917 89 0.0 0.0 0.00 0.00 0.00 61 1007.1
20260831085217 89 0.0 0.0 0.00 0.00 0.00 62 1007.2
20260831084216 89 0.0 0.0 0.00 0.00 0.00 62 1007.2
20260831083217 89 0.0 0.0 0.00 0.00 0.00 61 1007.2
20260831082216 89 0.0 0.0 0.00 0.00 0.00 60 1007.2
20260831081216 90 0.0 0.0 0.00 0.00 0.00 60 1007.2
20260831080216 90 164 2.0 5.0 0.00 0.00 0.00 59 1007.3
20260831075217 90 175 2.0 3.0 0.00 0.00 0.00 59 1007.3
20260831074217 90 164 3.0 6.0 0.00 0.00 0.00 58 1007.4
20260831073217 90 157 1.0 3.0 0.00 0.00 0.00 58 1007.3
20260831072216 91 0.0 0.0 0.00 0.00 0.00 57 1007.3
20260831071217 91 162 3.0 5.0 0.00 0.00 0.00 56 1007.2
20260831070217 91 156 4.0 6.0 0.00 0.00 0.00 56 1007.2
20260831065017 91 0.0 0.0 0.00 0.00 0.00 56 1007.2
20260831064015 91 150 5.0 7.0 0.00 0.00 0.00 56 1007.1
20260831063917 91 0.0 0.0 0.00 0.00 0.00 56 1007.1
20260831063216 91 155 6.0 8.0 0.00 0.00 0.00 55 1007.1
20260831062217 92 152 6.0 9.0 0.00 0.00 0.00 55 1007.1
20260831061316 92 158 7.0 9.0 0.00 0.00 0.00 54 1007.0
20260831060316 92 150 6.0 7.0 0.00 0.00 0.00 52 1007.0
20260831055316 92 155 8.0 9.0 0.00 0.00 0.00 50 1006.9
20260831054317 92 174 6.0 8.0 0.00 0.00 0.00 49 1006.9
20260831053319 92 179 5.0 7.0 0.00 0.00 0.00 48 1006.8
20260831052317 93 181 5.0 7.0 0.00 0.00 0.00 48 1006.9
20260831051317 93 167 2.0 4.0 0.00 0.00 0.00 49 1006.9
20260831050516 93 178 7.0 9.0 0.00 0.00 0.00 48 1007.0
20260831045517 93 163 6.0 8.0 0.00 0.00 0.00 47 1007.0
20260831044516 94 165 4.0 8.0 0.00 0.00 0.00 47 1007.1
20260831043517 94 188 6.0 8.0 0.00 0.00 0.00 45 1006.9
20260831042517 95 191 5.0 7.0 0.00 0.00 0.00 43 1006.8
20260831041617 95 172 8.0 10.0 0.00 0.00 0.00 42 1006.5
20260831035916 95 168 9.0 12.0 0.00 0.00 0.00 46 1006.1
20260831034916 96 157 9.0 11.0 0.00 0.00 0.00 45 1005.7
20260831033916 96 164 10.0 13.0 0.00 0.00 0.00 44 1005.5
20260831032917 97 172 9.0 12.0 0.00 0.00 0.00 42 1005.4
20260831031917 98 164 9.0 12.0 0.00 0.00 0.00 37 1005.1
20260831030916 99 175 6.0 10.0 0.00 0.00 0.00 38 1004.9
20260831025917 99 178 8.0 11.0 0.00 0.00 0.00 37 1004.6
20260831024916 100 168 10.0 13.0 0.00 0.00 0.00 36 1004.3
20260831023917 100 176 9.0 13.0 0.00 0.00 0.00 35 1004.1
20260831022917 101 168 9.0 12.0 0.00 0.00 0.00 35 1003.9
20260831021916 101 158 8.0 11.0 0.00 0.00 0.00 35 1003.8
20260831020916 101 161 9.0 12.0 0.00 0.00 0.00 35 1003.7
20260831015915 102 160 7.0 12.0 0.00 0.00 0.00 34 1003.7
20260831014917 103 157 5.0 8.0 0.00 0.00 0.00 33 1003.6
20260831013916 103 172 7.0 10.0 0.00 0.00 0.00 33 1003.6
20260831012916 103 176 7.0 10.0 0.00 0.00 0.00 32 1003.6
20260831011917 104 181 5.0 9.0 0.00 0.00 0.00 31 1003.6
20260831010915 104 195 4.0 8.0 0.00 0.00 0.00 30 1003.5
20260831005916 105 189 2.0 7.0 0.00 0.00 0.00 29 1003.5
20260831004915 105 167 2.0 6.0 0.00 0.00 0.00 30 1003.3
20260831003917 105 209 5.0 7.0 0.00 0.00 0.00 28 1003.3
20260831002917 105 188 2.0 6.0 0.00 0.00 0.00 29 1003.4
20260831002617 106 195 6.0 8.0 0.00 0.00 0.00 29 1003.5
20260831001617 107 209 5.0 8.0 0.00 0.00 0.00 28 1003.6
20260831000617 110 193 5.0 7.0 0.00 0.00 0.00 27 1003.4
20260830235617 110 201 6.0 9.0 0.00 0.00 0.00 27 1003.5
20260830234616 109 125 0.0 0.0 0.00 0.00 0.00 28 1003.6
20260830233616 110 197 2.0 6.0 0.00 0.00 0.00 27 1003.8
20260830232616 110 156 6.0 8.0 0.00 0.00 0.00 28 1003.9
20260830231617 110 166 5.0 8.0 0.00 0.00 0.00 28 1004.1
20260830230617 110 180 8.0 11.0 0.00 0.00 0.00 29 1004.2
20260830225617 110 154 8.0 10.0 0.00 0.00 0.00 29 1004.3
20260830224616 109 190 0.0 0.0 0.00 0.00 0.00 30 1004.5
20260830223616 109 195 5.0 10.0 0.00 0.00 0.00 29 1004.7
20260830222616 109 143 7.0 10.0 0.00 0.00 0.00 28 1004.9
20260830221616 110 165 6.0 9.0 0.00 0.00 0.00 31 1005.0
20260830220617 109 133 3.0 7.0 0.00 0.00 0.00 32 1005.3
20260830215617 108 181 3.0 6.0 0.00 0.00 0.00 32 1005.5
20260830214616 109 191 5.0 8.0 0.00 0.00 0.00 32 1005.6
20260830213517 109 149 8.0 10.0 0.00 0.00 0.00 32 1005.9
20260830212517 109 147 8.0 11.0 0.00 0.00 0.00 32 1006.0
20260830211517 108 141 8.0 11.0 0.00 0.00 0.00 33 1006.2
20260830210517 108 149 8.0 11.0 0.00 0.00 0.00 34 1006.5
20260830210317 107 167 3.0 6.0 0.00 0.00 0.00 35 1006.5
20260830205316 107 158 8.0 13.0 0.00 0.00 0.00 34 1006.7
20260830204317 107 151 9.0 11.0 0.00 0.00 0.00 35 1006.8